MET3421 - Oklahoma City to Kansas City

Bombardier Dash-8-Q400
857AG
1 hr 00 mins
272 nm
Scheduled - Daily

Bid/PiRep Status

Bid was submitted on November 1st, 2016 5:35 UTC.
PiRep # 73876: Approved by Dave Nichols on November 2nd, 2016 8:08 UTC

Departure

Departing from
Oklahoma City (OKC)
Departure gate
8
Scheduled Departure
GMT 1235
Local 0735
METAR KOKC 200652Z 18016G28KT 10SM OVC013 11/08 A2989 RMK AO2 PK WND 18028/0646 SLP119 T01060083
TAF KOKC 200520Z 2006/2106 18018G26KT P6SM OVC012 TEMPO 2009/2013 3SM BR BKN008 FM201500 19015G25KT P6SM BKN012 FM201900 19014G23KT P6SM SCT025 SCT250 FM210000 17014KT P6SM SCT250

Route Map

Planning Resources

KOKC,IRW,TUL,DOSOA,KMCI
KOKC VIA IRW IBAPE PER EMP JHAWK HOOZE RUGB NOHS KMCI
KOKC ICT UTEKE KMCI
LOKC DCT CNU STAR KMCI
KOKC-PER-EMP-TOP-KMCI
Route:
OFP Layout:
Units:
Detailed Navlog:
ETOPS Planning:
Plan Stepclimbs:
Runway Analysis:
Include NOTAMS:
FIR NOTAMS:
Flight Maps:

Popularity

Hub Current Bids PiReps this month Total PiReps
KLAX 0 0 1
KBOS 0 0 0
KDFW 0 0 0